St. Clothilde, Quebec

7:17 AM EDT on May 20, 2018 (GMT -0400)
St. Clothilde

Weather History for CWIT - November, 2013

Change the Weather History Date:

Wednesday, November 13, 2013

  Actual Average Record
Temperature  
Mean Temperature 26 °F -  
Max Temperature 36 °F - - ()
Min Temperature 19 °F - - ()
Degree Days  
Heating Degree Days 38    
Moisture  
Dew Point 16 °F    
Average Humidity 64    
Maximum Humidity 78    
Minimum Humidity 35    
Precipitation  
Precipitation 0.00 in - - ()
Sea Level Pressure  
Sea Level Pressure 30.20 in    
Wind  
Wind Speed 7 mph ()    
Max Wind Speed 12 mph    
Max Gust Speed 21 mph    
T = Trace of Precipitation, MM = Missing Value Source: Averaged Metar Reports

Daily Weather History Graph

Daily Weather History Graph

Search for Another Location

Airport or City:

Astronomy

Nov. 13, 2013 Rise Set
Actual Time 6:50 AM EST 4:27 PM EST
Civil Twilight 6:18 AM EST 4:58 PM EST
Nautical Twilight 5:43 AM EST 5:34 PM EST
Astronomical Twilight 5:08 AM EST 6:09 PM EST
Moon 2:22 PM EST (11/13) 2:30 AM EST (11/13)
Length of Visible Light 10h 40m
Length of Day
9h 36m
Waxing Gibbous, 84% of the Moon is Illuminated
Nov 13
Waxing Gibbous
Nov 17
Full
Nov 25
Last Quarter
Dec 2
New
Dec 9
First Quarter

Hourly Weather History & Observations

Time (EST) Temp. Windchill Dew Point Humidity Pressure Visibility Wind Dir Wind Speed Gust Speed Precip Events Conditions
12:00 AM 22.1 °F 12.0 °F 14.5 °F 73% 30.26 in - West 9.2 mph - N/A   Unknown
1:00 AM 21 °F - 14 °F 66% 30.26 in - West 8.1 mph - -  
1:00 AM 21.4 °F 11.9 °F 14.4 °F 74% 30.26 in - West 8.1 mph - N/A   Unknown
2:00 AM 21.4 °F 11.1 °F 14.2 °F 74% 30.27 in - West 9.2 mph - N/A   Unknown
3:00 AM 20.8 °F 10.4 °F 14.4 °F 76% 30.27 in - West 9.2 mph - N/A   Unknown
4:00 AM 19.9 °F 11.1 °F 14.2 °F 78% 30.27 in - West 6.9 mph - N/A   Unknown
5:00 AM 19.9 °F 10.1 °F 14.2 °F 78% 30.28 in - West 8.1 mph - N/A   Unknown
6:00 AM 20.3 °F 11.5 °F 13.6 °F 75% 30.29 in - West 6.9 mph - N/A   Unknown
7:00 AM 19 °F - 12 °F 62% 30.30 in - West 6.9 mph - -  
7:00 AM 19.4 °F 10.4 °F 11.7 °F 72% 30.30 in - West 6.9 mph - N/A   Unknown
8:00 AM 21.0 °F 11.4 °F 10.2 °F 63% 30.30 in - West 8.1 mph - N/A   Unknown
9:00 AM 22.5 °F 11.1 °F 10.6 °F 60% 30.30 in - West 11.5 mph 20.7 mph N/A   Unknown
10:00 AM 24.3 °F 13.3 °F 12.6 °F 61% 30.30 in - West 11.5 mph 19.6 mph N/A   Unknown
11:00 AM 25.5 °F 14.9 °F 12.2 °F 57% 30.28 in - West 11.5 mph 18.4 mph N/A   Unknown
12:00 PM 27.9 °F 17.8 °F 10.0 °F 47% 30.26 in - West 11.5 mph 18.4 mph N/A   Unknown
1:00 PM 29 °F - 12 °F 35% 30.22 in - West 9.2 mph - -  
1:00 PM 29.3 °F 20.8 °F 12.0 °F 49% 30.22 in - West 9.2 mph 18.4 mph N/A   Unknown
2:00 PM 29.1 °F 20.0 °F 14.7 °F 55% 30.20 in - West 10.4 mph 19.6 mph N/A   Unknown
3:00 PM 29.5 °F 21.8 °F 15.1 °F 55% 30.19 in - WSW 8.1 mph - N/A   Unknown
4:00 PM 29.5 °F 24.5 °F 16.7 °F 59% 30.15 in - WSW 4.6 mph - N/A   Unknown
5:00 PM 30.7 °F 24.9 °F 20.3 °F 65% 30.12 in - SW 5.8 mph - N/A   Unknown
6:00 PM 31.8 °F 26.2 °F 21.0 °F 64% 30.11 in - SW 5.8 mph - N/A   Unknown
7:00 PM 32 °F - 23 °F 57% 30.09 in - SSW 5.8 mph - -  
7:00 PM 32.0 °F 26.4 °F 22.6 °F 68% 30.09 in - SSW 5.8 mph - N/A   Unknown
8:00 PM 31.6 °F 28.3 °F 23.9 °F 73% 30.05 in - SSW 3.5 mph - N/A   Unknown
9:00 PM 31.6 °F 27.0 °F 24.6 °F 75% 30.02 in - SSW 4.6 mph - N/A   Unknown
10:00 PM 34.2 °F 29.0 °F 23.9 °F 66% 29.97 in - SW 5.8 mph - N/A   Unknown
11:00 PM 36.1 °F 29.9 °F 25.9 °F 66% 29.93 in - SW 8.1 mph - N/A   Unknown